SND280 YBRM-YPXM

Flight info

Callsign SND280
Flight time 2h 48m
Altitude 38000
Route TCART DCT GOGEV DCT MUBNO DCT LAMOB
Aircraft A20N/M-SDE2E3FGHIRWXY/LB1

Departure

Time 2026-05-07 05:56
Airport Broome International Airport (YBRM)

Arrival

Time 2026-05-07 08:44
Airport Christmas Island International Airport (YPXM)
Time Latitude Longitude Altitude Speed Heading
2026-05-07 05:47 -17.94833 122.23247 35 ft 0 kts 194°
2026-05-07 05:51 -17.94846 122.23243 35 ft 4 kts 193°
2026-05-07 05:51 -17.94886 122.23231 35 ft 8 kts 208°
2026-05-07 05:51 -17.94913 122.23188 37 ft 7 kts 271°
2026-05-07 05:51 -17.94901 122.23132 39 ft 9 kts 287°
2026-05-07 05:52 -17.94884 122.23068 41 ft 10 kts 288°
2026-05-07 05:52 -17.94864 122.22997 44 ft 11 kts 286°
2026-05-07 05:52 -17.94843 122.22918 46 ft 12 kts 285°
2026-05-07 05:52 -17.94820 122.22828 47 ft 14 kts 285°
2026-05-07 05:53 -17.94792 122.22723 52 ft 16 kts 285°
2026-05-07 05:53 -17.94761 122.22608 52 ft 18 kts 285°
2026-05-07 05:53 -17.94725 122.22474 49 ft 21 kts 285°
2026-05-07 05:53 -17.94681 122.22316 52 ft 24 kts 287°
2026-05-07 05:54 -17.94635 122.22162 51 ft 21 kts 287°
2026-05-07 05:54 -17.94606 122.22026 56 ft 19 kts 283°
2026-05-07 05:54 -17.94579 122.21911 58 ft 14 kts 286°
2026-05-07 05:54 -17.94557 122.21836 61 ft 8 kts 287°
2026-05-07 05:55 -17.94540 122.21781 60 ft 8 kts 289°
2026-05-07 05:55 -17.94534 122.21716 60 ft 7 kts 232°
2026-05-07 05:55 -17.94593 122.21702 60 ft 10 kts 155°
2026-05-07 05:55 -17.94642 122.21853 58 ft 51 kts 105°
2026-05-07 05:56 -17.94797 122.22442 57 ft 113 kts 106°
2026-05-07 05:56 -17.95037 122.23379 228 ft 145 kts 103°
2026-05-07 05:56 -17.95332 122.24474 667 ft 165 kts 104°
2026-05-07 05:56 -17.95650 122.25722 1013 ft 189 kts 101°
2026-05-07 05:57 -17.95806 122.27200 1297 ft 218 kts 88°
2026-05-07 05:57 -17.95586 122.28863 1702 ft 240 kts 76°
2026-05-07 05:57 -17.94994 122.30461 2264 ft 231 kts 62°
2026-05-07 05:57 -17.93927 122.31710 2788 ft 245 kts 34°
2026-05-07 05:58 -17.92178 122.32116 3336 ft 277 kts 359°
2026-05-07 05:58 -17.90289 122.31425 3980 ft 304 kts 329°
2026-05-07 05:58 -17.88761 122.29799 4717 ft 326 kts 303°
2026-05-07 05:58 -17.88025 122.27552 5793 ft 327 kts 276°
2026-05-07 05:59 -17.88244 122.25231 7013 ft 317 kts 247°
2026-05-07 05:59 -17.89385 122.23243 7715 ft 327 kts 224°
2026-05-07 05:59 -17.91219 122.21687 7921 ft 353 kts 216°
2026-05-07 05:59 -17.93050 122.19853 8246 ft 373 kts 233°
2026-05-07 06:00 -17.94181 122.17470 9403 ft 364 kts 253°
2026-05-07 06:00 -17.94453 122.14905 10954 ft 344 kts 273°
2026-05-07 06:00 -17.93899 122.12507 12265 ft 338 kts 291°
2026-05-07 06:00 -17.92796 122.10300 13094 ft 344 kts 297°
2026-05-07 06:01 -17.91621 122.08094 13948 ft 345 kts 295°
2026-05-07 06:01 -17.90565 122.05833 14744 ft 344 kts 290°
2026-05-07 06:01 -17.89744 122.03475 15482 ft 346 kts 286°
2026-05-07 06:01 -17.89049 122.01035 16138 ft 351 kts 284°
2026-05-07 06:02 -17.88409 121.98589 16875 ft 353 kts 284°
2026-05-07 06:02 -17.87758 121.96057 17568 ft 356 kts 284°
2026-05-07 06:02 -17.87115 121.93576 18273 ft 358 kts 284°
2026-05-07 06:02 -17.86453 121.91049 18912 ft 359 kts 284°
2026-05-07 06:03 -17.85785 121.88520 19563 ft 360 kts 284°
2026-05-07 06:03 -17.85111 121.85980 20199 ft 361 kts 285°
2026-05-07 06:03 -17.84435 121.83433 20826 ft 363 kts 285°
2026-05-07 06:03 -17.83755 121.80876 21446 ft 364 kts 285°
2026-05-07 06:04 -17.83071 121.78305 22015 ft 368 kts 285°
2026-05-07 06:04 -17.82381 121.75713 22585 ft 370 kts 285°
2026-05-07 06:04 -17.81684 121.73099 23215 ft 371 kts 285°
2026-05-07 06:04 -17.80986 121.70479 23755 ft 374 kts 285°
2026-05-07 06:05 -17.80282 121.67844 24243 ft 375 kts 285°
2026-05-07 06:05 -17.79585 121.65237 24714 ft 377 kts 284°
2026-05-07 06:05 -17.78875 121.62584 25167 ft 379 kts 284°
2026-05-07 06:05 -17.78161 121.59917 25611 ft 380 kts 283°
2026-05-07 06:06 -17.77435 121.57226 26041 ft 382 kts 284°
2026-05-07 06:06 -17.76534 121.54585 26452 ft 387 kts 289°
2026-05-07 06:06 -17.75455 121.51990 26841 ft 389 kts 289°
2026-05-07 06:06 -17.74369 121.49367 27163 ft 393 kts 289°
2026-05-07 06:07 -17.73666 121.47662 27410 ft 394 kts 288°
2026-05-07 06:07 -17.72211 121.44124 27916 ft 396 kts 288°
2026-05-07 06:07 -17.71118 121.41463 28262 ft 398 kts 288°
2026-05-07 06:07 -17.70020 121.38790 28614 ft 399 kts 288°
2026-05-07 06:08 -17.69290 121.37015 28842 ft 401 kts 287°
2026-05-07 06:08 -17.68183 121.34321 29129 ft 403 kts 287°
2026-05-07 06:08 -17.67069 121.31612 29411 ft 405 kts 287°
2026-05-07 06:08 -17.65950 121.28893 29713 ft 407 kts 287°
2026-05-07 06:09 -17.64825 121.26162 30037 ft 408 kts 286°
2026-05-07 06:09 -17.63698 121.23425 30282 ft 410 kts 286°
2026-05-07 06:09 -17.62561 121.20663 30506 ft 413 kts 286°
2026-05-07 06:09 -17.61419 121.17894 30775 ft 414 kts 286°
2026-05-07 06:10 -17.60288 121.15152 31041 ft 416 kts 286°
2026-05-07 06:10 -17.59139 121.12370 31360 ft 416 kts 286°
2026-05-07 06:10 -17.57991 121.09594 31707 ft 415 kts 286°
2026-05-07 06:10 -17.56844 121.06819 32058 ft 414 kts 286°
2026-05-07 06:11 -17.55700 121.04054 32403 ft 413 kts 286°
2026-05-07 06:11 -17.54560 121.01297 32731 ft 413 kts 286°
2026-05-07 06:11 -17.53419 120.98538 33062 ft 412 kts 286°
2026-05-07 06:11 -17.52280 120.95786 33373 ft 411 kts 286°
2026-05-07 06:12 -17.51142 120.93035 33662 ft 411 kts 285°
2026-05-07 06:12 -17.50004 120.90287 33954 ft 411 kts 285°
2026-05-07 06:12 -17.48868 120.87544 34219 ft 410 kts 285°
2026-05-07 06:12 -17.47734 120.84808 34477 ft 409 kts 286°
2026-05-07 06:13 -17.46599 120.82068 34673 ft 409 kts 286°
2026-05-07 06:13 -17.45477 120.79361 34896 ft 409 kts 286°
2026-05-07 06:13 -17.44346 120.76634 35136 ft 409 kts 286°
2026-05-07 06:13 -17.43213 120.73906 35377 ft 408 kts 286°
2026-05-07 06:14 -17.42084 120.71187 35618 ft 408 kts 286°
2026-05-07 06:14 -17.40950 120.68460 35856 ft 408 kts 286°
2026-05-07 06:14 -17.39823 120.65749 36107 ft 407 kts 286°
2026-05-07 06:14 -17.38693 120.63032 36343 ft 407 kts 286°
2026-05-07 06:15 -17.37561 120.60311 36582 ft 406 kts 286°
2026-05-07 06:15 -17.36432 120.57600 36830 ft 406 kts 286°
2026-05-07 06:15 -17.35305 120.54894 37060 ft 405 kts 286°
2026-05-07 06:15 -17.34178 120.52191 37292 ft 405 kts 286°
2026-05-07 06:16 -17.33052 120.49491 37513 ft 404 kts 286°
2026-05-07 06:16 -17.31941 120.46828 37721 ft 404 kts 286°
2026-05-07 06:16 -17.30817 120.44134 37942 ft 404 kts 286°
2026-05-07 06:17 -17.28569 120.38751 37978 ft 403 kts 287°
2026-05-07 06:17 -17.26319 120.33368 37983 ft 404 kts 287°
2026-05-07 06:18 -17.24053 120.27944 37980 ft 408 kts 287°
2026-05-07 06:18 -17.21778 120.22517 37981 ft 407 kts 287°
2026-05-07 06:19 -17.19505 120.17097 37981 ft 407 kts 287°
2026-05-07 06:19 -17.17239 120.11698 37977 ft 407 kts 287°
2026-05-07 06:20 -17.14959 120.06268 37971 ft 407 kts 287°
2026-05-07 06:20 -17.12691 120.00872 37971 ft 407 kts 287°
2026-05-07 06:21 -17.10405 119.95438 37977 ft 408 kts 287°
2026-05-07 06:21 -17.08115 119.90002 37975 ft 408 kts 287°
2026-05-07 06:22 -17.05839 119.84600 37980 ft 408 kts 287°
2026-05-07 06:22 -17.02392 119.76425 37977 ft 413 kts 287°
2026-05-07 06:23 -17.00074 119.70940 37976 ft 412 kts 287°
2026-05-07 06:23 -16.97758 119.65463 37976 ft 412 kts 287°
2026-05-07 06:24 -16.95442 119.59989 37975 ft 412 kts 287°
2026-05-07 06:24 -16.93125 119.54520 37971 ft 412 kts 287°
2026-05-07 06:25 -16.90823 119.49087 37965 ft 412 kts 288°
2026-05-07 06:25 -16.88502 119.43616 37966 ft 412 kts 288°
2026-05-07 06:26 -16.86180 119.38149 37964 ft 412 kts 288°
2026-05-07 06:26 -16.83847 119.32659 37966 ft 412 kts 288°
2026-05-07 06:27 -16.81519 119.27187 37957 ft 413 kts 288°
2026-05-07 06:27 -16.79185 119.21701 37945 ft 413 kts 288°
2026-05-07 06:28 -16.76861 119.16247 37948 ft 414 kts 288°
2026-05-07 06:28 -16.74518 119.10752 37957 ft 415 kts 288°
2026-05-07 06:29 -16.72167 119.05244 37963 ft 416 kts 288°
2026-05-07 06:29 -16.69809 118.99726 37971 ft 417 kts 288°
2026-05-07 06:30 -16.67445 118.94196 37963 ft 418 kts 288°
2026-05-07 06:30 -16.65074 118.88655 37972 ft 418 kts 288°
2026-05-07 06:31 -16.62710 118.83137 37970 ft 419 kts 288°
2026-05-07 06:31 -16.60327 118.77580 37965 ft 420 kts 288°
2026-05-07 06:32 -16.57950 118.72041 37964 ft 419 kts 289°
2026-05-07 06:32 -16.55569 118.66494 37963 ft 419 kts 289°
2026-05-07 06:33 -16.53182 118.60938 37958 ft 421 kts 289°
2026-05-07 06:33 -16.50790 118.55380 37957 ft 420 kts 289°
2026-05-07 06:34 -16.48398 118.49825 37958 ft 420 kts 289°
2026-05-07 06:34 -16.46001 118.44264 37959 ft 420 kts 289°
2026-05-07 06:35 -16.43606 118.38710 37955 ft 421 kts 289°
2026-05-07 06:35 -16.41205 118.33147 37948 ft 421 kts 289°
2026-05-07 06:36 -16.38819 118.27623 37952 ft 421 kts 289°
2026-05-07 06:36 -16.36413 118.22059 37944 ft 421 kts 289°
2026-05-07 06:37 -16.34003 118.16489 37936 ft 421 kts 289°
2026-05-07 06:37 -16.31589 118.10918 37939 ft 422 kts 289°
2026-05-07 06:38 -16.29175 118.05347 37941 ft 422 kts 289°
2026-05-07 06:38 -16.26755 117.99771 37946 ft 423 kts 289°
2026-05-07 06:39 -16.24330 117.94188 37949 ft 423 kts 289°
2026-05-07 06:39 -16.21917 117.88634 37952 ft 424 kts 289°
2026-05-07 06:40 -16.19482 117.83035 37951 ft 424 kts 289°
2026-05-07 06:40 -16.17047 117.77444 37950 ft 424 kts 290°
2026-05-07 06:41 -16.14610 117.71850 37954 ft 424 kts 290°
2026-05-07 06:41 -16.12175 117.66266 37953 ft 424 kts 290°
2026-05-07 06:42 -16.09752 117.60716 37949 ft 424 kts 290°
2026-05-07 06:42 -16.07312 117.55130 37948 ft 424 kts 290°
2026-05-07 06:43 -16.04871 117.49547 37947 ft 424 kts 290°
2026-05-07 06:43 -16.02446 117.44004 37945 ft 423 kts 290°
2026-05-07 06:44 -16.00008 117.38434 37945 ft 423 kts 290°
2026-05-07 06:44 -15.97567 117.32866 37943 ft 423 kts 290°
2026-05-07 06:45 -15.95129 117.27308 37939 ft 422 kts 290°
2026-05-07 06:45 -15.92705 117.21788 37934 ft 422 kts 290°
2026-05-07 06:46 -15.90264 117.16230 37934 ft 422 kts 290°
2026-05-07 06:46 -15.87826 117.10684 37921 ft 422 kts 290°
2026-05-07 06:47 -15.85384 117.05137 37922 ft 422 kts 290°
2026-05-07 06:47 -15.82937 116.99581 37924 ft 422 kts 290°
2026-05-07 06:48 -15.80501 116.94055 37927 ft 423 kts 290°
2026-05-07 06:48 -15.78051 116.88502 37927 ft 423 kts 290°
2026-05-07 06:49 -15.75595 116.82939 37932 ft 424 kts 290°
2026-05-07 06:49 -15.73148 116.77400 37934 ft 424 kts 290°
2026-05-07 06:50 -15.70686 116.71835 37938 ft 424 kts 290°
2026-05-07 06:50 -15.68219 116.66261 37941 ft 425 kts 290°
2026-05-07 06:51 -15.65749 116.60686 37937 ft 425 kts 290°
2026-05-07 06:51 -15.63278 116.55108 37924 ft 425 kts 291°
2026-05-07 06:52 -15.60801 116.49527 37930 ft 426 kts 291°
2026-05-07 06:52 -15.58331 116.43966 37930 ft 426 kts 291°
2026-05-07 06:53 -15.55848 116.38379 37930 ft 427 kts 291°
2026-05-07 06:53 -15.53362 116.32788 37932 ft 427 kts 291°
2026-05-07 06:54 -15.50872 116.27195 37937 ft 427 kts 291°
2026-05-07 06:54 -15.48380 116.21600 37938 ft 427 kts 291°
2026-05-07 06:55 -15.45885 116.16005 37935 ft 427 kts 291°
2026-05-07 06:55 -15.43404 116.10445 37935 ft 427 kts 291°
2026-05-07 06:56 -15.40908 116.04855 37937 ft 427 kts 291°
2026-05-07 06:56 -15.38411 115.99265 37924 ft 427 kts 291°
2026-05-07 06:57 -15.35910 115.93676 37920 ft 427 kts 291°
2026-05-07 06:57 -15.33833 115.89036 37921 ft 427 kts 291°
2026-05-07 06:58 -15.31332 115.83452 37924 ft 427 kts 291°
2026-05-07 06:58 -15.28828 115.77866 37925 ft 427 kts 291°
2026-05-07 06:59 -15.26337 115.72313 37923 ft 427 kts 291°
2026-05-07 06:59 -15.23827 115.66723 37925 ft 428 kts 291°
2026-05-07 07:00 -15.21315 115.61136 37930 ft 428 kts 291°
2026-05-07 07:00 -15.18799 115.55543 37930 ft 428 kts 291°
2026-05-07 07:01 -15.16302 115.49996 37929 ft 428 kts 291°
2026-05-07 07:01 -15.13785 115.44407 37920 ft 428 kts 291°
2026-05-07 07:02 -15.11268 115.38821 37920 ft 428 kts 291°
2026-05-07 07:02 -15.08750 115.33237 37922 ft 428 kts 291°
2026-05-07 07:03 -15.06226 115.27645 37922 ft 429 kts 291°
2026-05-07 07:03 -15.03700 115.22049 37925 ft 429 kts 291°
2026-05-07 07:04 -15.01172 115.16454 37926 ft 429 kts 291°
2026-05-07 07:04 -14.98640 115.10887 37928 ft 430 kts 291°
2026-05-07 07:05 -14.96050 115.05306 37930 ft 430 kts 291°
2026-05-07 07:05 -14.93466 114.99723 37927 ft 430 kts 291°
2026-05-07 07:06 -14.90888 114.94141 37924 ft 430 kts 291°
2026-05-07 07:06 -14.88309 114.88550 37917 ft 431 kts 291°
2026-05-07 07:07 -14.85738 114.82986 37919 ft 431 kts 291°
2026-05-07 07:07 -14.83149 114.77390 37920 ft 431 kts 291°
2026-05-07 07:08 -14.80554 114.71788 37921 ft 432 kts 291°
2026-05-07 07:08 -14.77961 114.66192 37925 ft 432 kts 291°
2026-05-07 07:09 -14.75363 114.60591 37942 ft 432 kts 291°
2026-05-07 07:09 -14.72762 114.54988 37939 ft 432 kts 291°
2026-05-07 07:10 -14.70160 114.49386 37925 ft 433 kts 291°
2026-05-07 07:10 -14.67570 114.43815 37922 ft 433 kts 291°
2026-05-07 07:11 -14.64961 114.38209 37916 ft 433 kts 291°
2026-05-07 07:11 -14.62353 114.32606 37908 ft 433 kts 291°
2026-05-07 07:12 -14.59738 114.26994 37908 ft 433 kts 291°
2026-05-07 07:12 -14.57125 114.21392 37925 ft 433 kts 291°
2026-05-07 07:13 -14.54524 114.15817 37922 ft 433 kts 291°
2026-05-07 07:13 -14.51906 114.10211 37934 ft 433 kts 291°
2026-05-07 07:14 -14.49285 114.04603 37911 ft 434 kts 291°
2026-05-07 07:14 -14.46654 113.98977 37927 ft 434 kts 291°
2026-05-07 07:15 -14.44025 113.93361 37910 ft 435 kts 291°
2026-05-07 07:15 -14.41403 113.87762 37916 ft 435 kts 291°
2026-05-07 07:16 -14.38761 113.82124 37928 ft 436 kts 291°
2026-05-07 07:16 -14.36122 113.76497 37925 ft 436 kts 292°
2026-05-07 07:17 -14.33477 113.70863 37916 ft 437 kts 292°
2026-05-07 07:17 -14.30827 113.65223 37909 ft 437 kts 292°
2026-05-07 07:18 -14.28183 113.59600 37924 ft 437 kts 292°
2026-05-07 07:18 -14.25525 113.53950 37925 ft 438 kts 292°
2026-05-07 07:19 -14.22863 113.48297 37926 ft 438 kts 292°
2026-05-07 07:19 -14.20201 113.42647 37928 ft 438 kts 292°
2026-05-07 07:20 -14.17534 113.36990 37916 ft 439 kts 292°
2026-05-07 07:20 -14.14865 113.31335 37921 ft 439 kts 292°
2026-05-07 07:21 -14.12192 113.25674 37919 ft 439 kts 292°
2026-05-07 07:21 -14.09537 113.20055 37915 ft 438 kts 292°
2026-05-07 07:22 -14.06877 113.14432 37917 ft 436 kts 292°
2026-05-07 07:22 -14.04218 113.08810 37912 ft 438 kts 292°
2026-05-07 07:23 -14.01541 113.03157 37915 ft 438 kts 292°
2026-05-07 07:23 -13.98870 112.97522 37914 ft 438 kts 292°
2026-05-07 07:24 -13.96196 112.91885 37917 ft 438 kts 292°
2026-05-07 07:24 -13.93539 112.86285 37911 ft 438 kts 292°
2026-05-07 07:25 -13.89538 112.77863 37910 ft 438 kts 292°
2026-05-07 07:26 -13.86854 112.72218 37913 ft 438 kts 292°
2026-05-07 07:26 -13.84174 112.66584 37917 ft 438 kts 292°
2026-05-07 07:27 -13.81491 112.60950 37914 ft 438 kts 292°
2026-05-07 07:27 -13.78822 112.55347 37916 ft 438 kts 292°
2026-05-07 07:28 -13.76138 112.49717 37914 ft 438 kts 292°
2026-05-07 07:28 -13.73457 112.44099 37910 ft 437 kts 292°
2026-05-07 07:29 -13.70775 112.38480 37908 ft 437 kts 292°
2026-05-07 07:29 -13.68092 112.32865 37908 ft 437 kts 292°
2026-05-07 07:30 -13.65406 112.27247 37911 ft 437 kts 292°
2026-05-07 07:30 -13.62739 112.21674 37911 ft 437 kts 292°
2026-05-07 07:31 -13.60051 112.16060 37909 ft 437 kts 292°
2026-05-07 07:31 -13.57366 112.10454 37907 ft 437 kts 292°
2026-05-07 07:32 -13.54675 112.04843 37907 ft 437 kts 292°
2026-05-07 07:32 -13.51986 111.99237 37907 ft 437 kts 292°
2026-05-07 07:33 -13.49295 111.93632 37910 ft 437 kts 292°
2026-05-07 07:33 -13.46604 111.88032 37908 ft 437 kts 292°
2026-05-07 07:34 -13.43911 111.82430 37908 ft 437 kts 292°
2026-05-07 07:34 -13.41233 111.76865 37913 ft 437 kts 292°
2026-05-07 07:35 -13.38538 111.71266 37908 ft 437 kts 292°
2026-05-07 07:35 -13.35838 111.65661 37908 ft 437 kts 292°
2026-05-07 07:36 -13.33135 111.60054 37906 ft 437 kts 292°
2026-05-07 07:36 -13.30430 111.54447 37910 ft 437 kts 292°
2026-05-07 07:37 -13.27744 111.48884 37905 ft 437 kts 292°
2026-05-07 07:37 -13.25041 111.43288 37903 ft 438 kts 292°
2026-05-07 07:38 -13.22336 111.37691 37903 ft 438 kts 292°
2026-05-07 07:38 -13.19627 111.32091 37904 ft 438 kts 292°
2026-05-07 07:39 -13.16914 111.26486 37907 ft 438 kts 292°
2026-05-07 07:39 -13.14220 111.20924 37903 ft 438 kts 292°
2026-05-07 07:40 -13.11502 111.15317 37906 ft 438 kts 292°
2026-05-07 07:40 -13.08784 111.09711 37908 ft 438 kts 293°
2026-05-07 07:41 -13.06064 111.04107 37908 ft 438 kts 293°
2026-05-07 07:41 -13.03344 110.98507 37900 ft 438 kts 293°
2026-05-07 07:42 -13.00639 110.92941 37904 ft 438 kts 293°
2026-05-07 07:42 -12.97911 110.87331 37903 ft 438 kts 293°
2026-05-07 07:43 -12.95189 110.81735 37902 ft 438 kts 293°
2026-05-07 07:43 -12.92465 110.76142 37904 ft 438 kts 293°
2026-05-07 07:44 -12.89759 110.70587 37901 ft 438 kts 293°
2026-05-07 07:44 -12.87032 110.64996 37899 ft 438 kts 293°
2026-05-07 07:45 -12.84302 110.59400 37904 ft 438 kts 293°
2026-05-07 07:45 -12.81576 110.53817 37904 ft 438 kts 293°
2026-05-07 07:46 -12.79309 110.49176 37903 ft 438 kts 293°
2026-05-07 07:46 -12.76580 110.43592 37904 ft 438 kts 293°
2026-05-07 07:47 -12.73854 110.38018 37900 ft 438 kts 293°
2026-05-07 07:47 -12.71142 110.32477 37899 ft 437 kts 293°
2026-05-07 07:48 -12.68416 110.26911 37890 ft 437 kts 293°
2026-05-07 07:48 -12.65685 110.21337 37890 ft 437 kts 293°
2026-05-07 07:49 -12.62951 110.15762 37888 ft 437 kts 293°
2026-05-07 07:49 -12.60217 110.10190 37890 ft 437 kts 293°
2026-05-07 07:50 -12.57479 110.04614 37668 ft 438 kts 293°
2026-05-07 07:50 -12.56108 110.01823 37408 ft 438 kts 293°
2026-05-07 07:50 -12.54738 109.99035 37156 ft 439 kts 293°
2026-05-07 07:50 -12.53368 109.96245 36903 ft 440 kts 293°
2026-05-07 07:51 -12.52008 109.93479 36657 ft 441 kts 293°
2026-05-07 07:51 -12.50628 109.90675 36412 ft 441 kts 293°
2026-05-07 07:51 -12.49245 109.87863 36097 ft 443 kts 293°
2026-05-07 07:51 -12.47860 109.85048 35765 ft 443 kts 293°
2026-05-07 07:52 -12.46469 109.82223 35434 ft 444 kts 293°
2026-05-07 07:52 -12.45081 109.79403 34993 ft 445 kts 293°
2026-05-07 07:52 -12.43680 109.76559 34206 ft 450 kts 293°
2026-05-07 07:52 -12.42261 109.73676 33230 ft 456 kts 294°
2026-05-07 07:53 -12.40832 109.70774 32352 ft 458 kts 294°
2026-05-07 07:53 -12.39395 109.67859 31506 ft 459 kts 294°
2026-05-07 07:53 -12.37971 109.64969 30590 ft 462 kts 295°
2026-05-07 07:53 -12.36521 109.62027 29649 ft 464 kts 295°
2026-05-07 07:54 -12.35068 109.59083 28587 ft 466 kts 295°
2026-05-07 07:54 -12.33628 109.56166 27506 ft 469 kts 295°
2026-05-07 07:54 -12.32151 109.53178 26691 ft 466 kts 295°
2026-05-07 07:54 -12.30702 109.50249 26200 ft 456 kts 295°
2026-05-07 07:55 -12.29300 109.47415 25708 ft 447 kts 295°
2026-05-07 07:55 -12.27919 109.44623 25432 ft 433 kts 295°
2026-05-07 07:55 -12.26583 109.41925 25232 ft 418 kts 294°
2026-05-07 07:55 -12.25276 109.39284 25077 ft 418 kts 294°
2026-05-07 07:56 -12.23957 109.36612 24923 ft 423 kts 295°
2026-05-07 07:56 -12.22629 109.33927 24767 ft 421 kts 295°
2026-05-07 07:56 -12.21311 109.31264 24611 ft 419 kts 295°
2026-05-07 07:56 -12.19993 109.28602 24461 ft 419 kts 294°
2026-05-07 07:57 -12.18679 109.25950 24301 ft 418 kts 294°
2026-05-07 07:57 -12.17365 109.23298 24148 ft 417 kts 294°
2026-05-07 07:57 -12.16051 109.20648 23996 ft 417 kts 294°
2026-05-07 07:57 -12.14757 109.18039 23849 ft 416 kts 294°
2026-05-07 07:58 -12.13450 109.15405 23703 ft 415 kts 294°
2026-05-07 07:58 -12.12147 109.12779 23548 ft 414 kts 294°
2026-05-07 07:58 -12.10845 109.10156 23381 ft 413 kts 294°
2026-05-07 07:58 -12.09544 109.07536 23199 ft 412 kts 294°
2026-05-07 07:59 -12.08247 109.04923 23013 ft 412 kts 295°
2026-05-07 07:59 -12.06954 109.02318 22834 ft 411 kts 295°
2026-05-07 07:59 -12.05659 108.99710 22655 ft 410 kts 295°
2026-05-07 07:59 -12.04369 108.97113 22482 ft 409 kts 295°
2026-05-07 08:00 -12.03082 108.94523 22301 ft 408 kts 295°
2026-05-07 08:00 -12.01798 108.91939 22126 ft 407 kts 295°
2026-05-07 08:00 -12.00532 108.89393 21955 ft 406 kts 295°
2026-05-07 08:00 -11.99270 108.86810 21783 ft 405 kts 293°
2026-05-07 08:01 -11.98133 108.84185 21610 ft 404 kts 291°
2026-05-07 08:01 -11.97047 108.81540 21439 ft 403 kts 290°
2026-05-07 08:01 -11.95966 108.78903 21270 ft 402 kts 291°
2026-05-07 08:01 -11.94878 108.76284 21098 ft 397 kts 290°
2026-05-07 08:02 -11.93790 108.73693 20930 ft 398 kts 291°
2026-05-07 08:02 -11.92690 108.71092 20766 ft 400 kts 291°
2026-05-07 08:02 -11.91586 108.68487 20597 ft 399 kts 291°
2026-05-07 08:02 -11.90488 108.65902 20434 ft 394 kts 290°
2026-05-07 08:03 -11.89402 108.63339 20268 ft 392 kts 290°
2026-05-07 08:03 -11.88314 108.60774 20108 ft 395 kts 290°
2026-05-07 08:03 -11.87237 108.58233 19946 ft 394 kts 290°
2026-05-07 08:03 -11.86154 108.55674 19783 ft 391 kts 290°
2026-05-07 08:04 -11.85058 108.53107 19625 ft 395 kts 292°
2026-05-07 08:04 -11.83960 108.50536 19461 ft 394 kts 291°
2026-05-07 08:04 -11.82868 108.47974 19301 ft 391 kts 289°
2026-05-07 08:04 -11.81793 108.45420 19142 ft 392 kts 291°
2026-05-07 08:05 -11.80705 108.42866 18987 ft 392 kts 292°
2026-05-07 08:05 -11.79618 108.40318 18833 ft 391 kts 291°
2026-05-07 08:05 -11.78538 108.37779 18672 ft 387 kts 291°
2026-05-07 08:05 -11.77465 108.35254 18521 ft 389 kts 291°
2026-05-07 08:06 -11.76384 108.32725 18367 ft 388 kts 291°
2026-05-07 08:06 -11.75320 108.30236 18216 ft 387 kts 291°
2026-05-07 08:06 -11.74234 108.27687 18040 ft 387 kts 292°
2026-05-07 08:06 -11.73174 108.25198 17865 ft 387 kts 291°
2026-05-07 08:07 -11.72119 108.22675 17681 ft 385 kts 290°
2026-05-07 08:07 -11.71076 108.20167 17510 ft 384 kts 290°
2026-05-07 08:07 -11.70024 108.17660 17359 ft 383 kts 290°
2026-05-07 08:07 -11.68965 108.15164 17205 ft 383 kts 291°
2026-05-07 08:08 -11.67902 108.12675 17056 ft 382 kts 291°
2026-05-07 08:08 -11.66840 108.10194 16908 ft 381 kts 291°
2026-05-07 08:08 -11.65777 108.07718 16759 ft 381 kts 291°
2026-05-07 08:08 -11.64714 108.05245 16612 ft 380 kts 291°
2026-05-07 08:09 -11.63656 108.02781 16467 ft 379 kts 291°
2026-05-07 08:09 -11.62599 108.00318 16323 ft 378 kts 291°
2026-05-07 08:09 -11.61543 107.97856 16168 ft 378 kts 291°
2026-05-07 08:09 -11.60490 107.95399 16033 ft 377 kts 291°
2026-05-07 08:10 -11.59444 107.92950 15883 ft 377 kts 292°
2026-05-07 08:10 -11.58404 107.90526 15743 ft 376 kts 292°
2026-05-07 08:10 -11.57354 107.88080 15604 ft 375 kts 292°
2026-05-07 08:10 -11.56304 107.85638 15462 ft 375 kts 292°
2026-05-07 08:11 -11.55257 107.83209 15322 ft 374 kts 292°
2026-05-07 08:11 -11.54219 107.80781 15177 ft 373 kts 292°
2026-05-07 08:11 -11.53179 107.78356 15046 ft 372 kts 292°
2026-05-07 08:11 -11.52141 107.75940 14901 ft 372 kts 292°
2026-05-07 08:12 -11.51102 107.73530 14761 ft 371 kts 292°
2026-05-07 08:12 -11.50063 107.71119 14622 ft 371 kts 292°
2026-05-07 08:12 -11.49031 107.68715 14485 ft 370 kts 292°
2026-05-07 08:12 -11.48003 107.66313 14348 ft 370 kts 292°
2026-05-07 08:13 -11.46968 107.63908 14208 ft 370 kts 292°
2026-05-07 08:13 -11.45933 107.61503 14080 ft 370 kts 292°
2026-05-07 08:13 -11.44903 107.59107 13941 ft 369 kts 292°
2026-05-07 08:13 -11.43886 107.56739 13809 ft 368 kts 292°
2026-05-07 08:14 -11.42865 107.54355 13675 ft 366 kts 292°
2026-05-07 08:14 -11.41843 107.51980 13524 ft 365 kts 293°
2026-05-07 08:14 -11.40823 107.49610 13374 ft 365 kts 293°
2026-05-07 08:14 -11.39805 107.47244 13214 ft 365 kts 293°
2026-05-07 08:15 -11.38784 107.44877 13075 ft 365 kts 292°
2026-05-07 08:15 -11.37766 107.42510 12919 ft 363 kts 293°
2026-05-07 08:15 -11.36751 107.40153 12769 ft 364 kts 293°
2026-05-07 08:15 -11.35732 107.37789 12619 ft 363 kts 293°
2026-05-07 08:16 -11.34719 107.35435 12472 ft 362 kts 293°
2026-05-07 08:16 -11.33711 107.33092 12324 ft 360 kts 293°
2026-05-07 08:16 -11.32706 107.30759 12171 ft 359 kts 293°
2026-05-07 08:16 -11.31714 107.28458 12034 ft 359 kts 293°
2026-05-07 08:17 -11.30712 107.26133 11886 ft 358 kts 293°
2026-05-07 08:17 -11.29712 107.23816 11740 ft 357 kts 293°
2026-05-07 08:17 -11.28713 107.21500 11597 ft 357 kts 293°
2026-05-07 08:17 -11.27715 107.19188 11453 ft 356 kts 293°
2026-05-07 08:18 -11.26718 107.16877 11311 ft 355 kts 294°
2026-05-07 08:18 -11.25725 107.14575 11163 ft 354 kts 294°
2026-05-07 08:18 -11.24732 107.12277 11030 ft 354 kts 294°
2026-05-07 08:18 -11.23744 107.09987 10882 ft 353 kts 294°
2026-05-07 08:19 -11.22752 107.07691 10744 ft 353 kts 294°
2026-05-07 08:19 -11.21764 107.05406 10605 ft 352 kts 294°
2026-05-07 08:19 -11.20778 107.03125 10465 ft 351 kts 294°
2026-05-07 08:19 -11.19797 107.00855 10328 ft 348 kts 294°
2026-05-07 08:20 -11.18839 106.98639 10182 ft 335 kts 294°
2026-05-07 08:20 -11.17918 106.96509 10045 ft 322 kts 294°
2026-05-07 08:20 -11.17043 106.94487 9909 ft 310 kts 294°
2026-05-07 08:20 -11.16188 106.92511 9768 ft 299 kts 294°
2026-05-07 08:21 -11.15349 106.90574 9621 ft 301 kts 294°
2026-05-07 08:21 -11.14503 106.88618 9467 ft 301 kts 294°
2026-05-07 08:21 -11.13659 106.86669 9317 ft 300 kts 294°
2026-05-07 08:21 -11.12819 106.84728 9165 ft 299 kts 294°
2026-05-07 08:22 -11.11980 106.82791 9014 ft 299 kts 294°
2026-05-07 08:22 -11.11142 106.80857 8866 ft 299 kts 294°
2026-05-07 08:22 -11.10307 106.78929 8722 ft 299 kts 294°
2026-05-07 08:22 -11.09480 106.77019 8600 ft 298 kts 294°
2026-05-07 08:23 -11.08644 106.75091 8473 ft 298 kts 294°
2026-05-07 08:23 -11.07804 106.73154 8358 ft 298 kts 294°
2026-05-07 08:23 -11.06968 106.71225 8223 ft 298 kts 294°
2026-05-07 08:23 -11.06131 106.69293 8109 ft 297 kts 294°
2026-05-07 08:24 -11.05299 106.67377 7993 ft 296 kts 294°
2026-05-07 08:24 -11.04468 106.65460 7870 ft 296 kts 295°
2026-05-07 08:24 -11.03639 106.63549 7751 ft 294 kts 294°
2026-05-07 08:24 -11.02812 106.61643 7630 ft 294 kts 295°
2026-05-07 08:25 -11.01993 106.59758 7513 ft 295 kts 295°
2026-05-07 08:25 -11.01163 106.57847 7390 ft 295 kts 295°
2026-05-07 08:25 -11.00331 106.55930 7275 ft 297 kts 295°
2026-05-07 08:25 -10.99485 106.53990 7164 ft 303 kts 295°
2026-05-07 08:26 -10.97773 106.50100 6923 ft 299 kts 297°
2026-05-07 08:26 -10.96921 106.48173 6801 ft 295 kts 296°
2026-05-07 08:26 -10.96084 106.46268 6687 ft 296 kts 296°
2026-05-07 08:27 -10.95237 106.44338 6571 ft 301 kts 296°
2026-05-07 08:27 -10.94397 106.42400 6457 ft 296 kts 295°
2026-05-07 08:27 -10.93584 106.40505 6342 ft 290 kts 295°
2026-05-07 08:27 -10.92777 106.38643 6225 ft 291 kts 295°
2026-05-07 08:28 -10.91953 106.36748 6100 ft 294 kts 295°
2026-05-07 08:28 -10.91125 106.34846 5978 ft 294 kts 295°
2026-05-07 08:28 -10.90301 106.32949 5855 ft 293 kts 295°
2026-05-07 08:28 -10.89474 106.31039 5731 ft 298 kts 296°
2026-05-07 08:29 -10.88636 106.29108 5617 ft 298 kts 296°
2026-05-07 08:29 -10.87797 106.27172 5487 ft 297 kts 296°
2026-05-07 08:29 -10.86965 106.25257 5369 ft 295 kts 296°
2026-05-07 08:29 -10.86132 106.23340 5243 ft 296 kts 296°
2026-05-07 08:30 -10.85312 106.21450 5132 ft 295 kts 296°
2026-05-07 08:30 -10.84486 106.19549 5018 ft 292 kts 296°
2026-05-07 08:30 -10.83664 106.17662 4884 ft 291 kts 296°
2026-05-07 08:30 -10.82849 106.15786 4779 ft 290 kts 296°
2026-05-07 08:31 -10.82025 106.13899 4663 ft 292 kts 295°
2026-05-07 08:31 -10.81201 106.12009 4530 ft 292 kts 296°
2026-05-07 08:31 -10.80376 106.10115 4414 ft 291 kts 295°
2026-05-07 08:31 -10.79570 106.08268 4292 ft 287 kts 295°
2026-05-07 08:32 -10.78765 106.06417 4166 ft 286 kts 296°
2026-05-07 08:32 -10.77958 106.04568 4048 ft 285 kts 295°
2026-05-07 08:32 -10.77151 106.02718 3921 ft 287 kts 295°
2026-05-07 08:32 -10.76340 106.00860 3803 ft 289 kts 295°
2026-05-07 08:33 -10.75521 105.98985 3684 ft 291 kts 296°
2026-05-07 08:33 -10.74703 105.97110 3562 ft 286 kts 295°
2026-05-07 08:33 -10.73896 105.95262 3440 ft 288 kts 295°
2026-05-07 08:33 -10.73082 105.93399 3318 ft 287 kts 295°
2026-05-07 08:34 -10.72273 105.91548 3198 ft 286 kts 295°
2026-05-07 08:34 -10.71471 105.89712 3080 ft 288 kts 295°
2026-05-07 08:34 -10.70659 105.87854 2955 ft 286 kts 296°
2026-05-07 08:34 -10.69850 105.86005 2834 ft 287 kts 296°
2026-05-07 08:35 -10.69038 105.84151 2721 ft 287 kts 296°
2026-05-07 08:35 -10.68227 105.82296 2599 ft 286 kts 296°
2026-05-07 08:35 -10.67697 105.81083 2510 ft 281 kts 296°
2026-05-07 08:35 -10.66915 105.79293 2395 ft 271 kts 296°
2026-05-07 08:36 -10.66169 105.77585 2352 ft 257 kts 295°
2026-05-07 08:36 -10.65463 105.75970 2351 ft 243 kts 295°
2026-05-07 08:36 -10.64795 105.74441 2351 ft 229 kts 295°
2026-05-07 08:36 -10.64169 105.73011 2348 ft 214 kts 296°
2026-05-07 08:37 -10.63584 105.71684 2346 ft 198 kts 299°
2026-05-07 08:37 -10.62742 105.70747 2321 ft 175 kts 342°
2026-05-07 08:37 -10.61775 105.70685 3583 ft 105 kts 32°
2026-05-07 08:37 -10.61013 105.71192 3490 ft 179 kts 39°
2026-05-07 08:38 -10.59514 105.71626 3044 ft 270 kts
2026-05-07 08:38 -10.57510 105.71245 3013 ft 311 kts 347°
2026-05-07 08:38 -10.55399 105.70584 2985 ft 320 kts 347°
2026-05-07 08:38 -10.57736 105.71022 2901 ft 313 kts 353°
2026-05-07 08:39 -10.68878 105.72464 2852 ft 307 kts 353°
2026-05-07 08:39 -10.66839 105.72089 2682 ft 288 kts 350°
2026-05-07 08:39 -10.64963 105.71576 2460 ft 271 kts 348°
2026-05-07 08:39 -10.63208 105.71074 2352 ft 251 kts 348°
2026-05-07 08:40 -10.61606 105.70591 2350 ft 229 kts 348°
2026-05-07 08:40 -10.60118 105.70164 2354 ft 219 kts 355°
2026-05-07 08:40 -10.58707 105.70023 2373 ft 193 kts
2026-05-07 08:40 -10.57447 105.69992 2343 ft 169 kts
2026-05-07 08:41 -10.56320 105.69963 2370 ft 164 kts
2026-05-07 08:41 -10.55170 105.69920 2355 ft 163 kts
2026-05-07 08:41 -10.54036 105.69843 2406 ft 162 kts
2026-05-07 08:41 -10.52913 105.69744 2403 ft 163 kts
2026-05-07 08:42 -10.51795 105.69653 2400 ft 162 kts
2026-05-07 08:42 -10.50642 105.69572 2310 ft 167 kts
2026-05-07 08:42 -10.49508 105.69478 2145 ft 164 kts
2026-05-07 08:42 -10.48902 105.69376 1916 ft 1824 kts
2026-05-07 08:43 -10.51552 105.69463 1562 ft 169 kts
2026-05-07 08:43 -10.50377 105.69369 1280 ft 164 kts
2026-05-07 08:43 -10.49252 105.69356 1166 ft 165 kts
2026-05-07 08:43 -10.48145 105.69324 1032 ft 151 kts
2026-05-07 08:44 -10.47132 105.69281 960 ft 146 kts 359°
2026-05-07 08:44 -10.46096 105.69178 836 ft 148 kts
2026-05-07 08:44 -10.45247 105.69142 839 ft 64 kts 349°
2026-05-07 08:44 -10.45090 105.69067 852 ft 14 kts 301°
2026-05-07 08:45 -10.45083 105.69024 852 ft 8 kts 261°
2026-05-07 08:45 -10.45113 105.68949 848 ft 10 kts 219°
2026-05-07 08:45 -10.45132 105.68935 849 ft 0 kts 217°